Alma, MI

6:23 PM EDT on October 19, 2017 (GMT -0400)
Gratiot Community

Weather History for KAMN - May, 2013

Change the Weather History Date:

Sunday, May 26, 2013

  Actual Average Record
Temperature  
Mean Temperature 52 °F -  
Max Temperature 66 °F 70 °F 87 °F (1977)
Min Temperature 37 °F 47 °F 33 °F (1949)
Degree Days  
Heating Degree Days 14    
Growing Degree Days 2 (Base 50)    
Moisture  
Dew Point 38 °F    
Average Humidity 62    
Maximum Humidity 99    
Minimum Humidity 31    
Precipitation  
Precipitation 0.00 in - - ()
Sea Level Pressure  
Sea Level Pressure 30.31 in    
Wind  
Wind Speed 3 mph (East)    
Max Wind Speed 10 mph    
Max Gust Speed -    
Visibility 10 miles    
Events      
Averages and records for this station are not official NWS values.
T = Trace of Precipitation, MM = Missing Value Source: NWS Daily Summary

Daily Weather History Graph

Daily Weather History Graph

Search for Another Location

Airport or City:

Trip Planner

Search our weather history database for the weather conditions in past years. The results will help you decide how hot, cold, wet, or windy it might be!

Date:

Astronomy

May. 26, 2013 Rise Set
Actual Time 6:04 AM EDT 9:07 PM EDT
Civil Twilight 5:30 AM EDT 9:41 PM EDT
Nautical Twilight 4:46 AM EDT 10:25 PM EDT
Astronomical Twilight 3:55 AM EDT 11:17 PM EDT
Moon 10:53 PM EDT (5/26) 7:33 AM EDT (5/26)
Length of Visible Light 16h 11m
Length of Day
15h 02m
Waning Gibbous, 97% of the Moon is Illuminated
May 26
Waning Gibbous
May 31
Last Quarter
Jun 8
New
Jun 16
First Quarter
Jun 23
Full

Hourly Weather History & Observations

Time (EDT) Temp. Windchill Dew Point Humidity Pressure Visibility Wind Dir Wind Speed Gust Speed Precip Events Conditions
12:14 AM 46.4 °F 41.5 °F 39.9 °F 78% 30.34 in 10.0 mi East 10.4 mph - N/A   Clear
12:33 AM 45.7 °F 42.7 °F 38.5 °F 76% 30.34 in 10.0 mi East 5.8 mph - N/A   Clear
12:53 AM 44.6 °F 43.1 °F 39.6 °F 82% 30.34 in 10.0 mi ESE 3.5 mph - N/A   Clear
1:14 AM 43.2 °F - 40.1 °F 89% 30.33 in 10.0 mi Calm Calm - N/A   Mostly Cloudy
1:33 AM 43.0 °F - 39.0 °F 86% 30.33 in 10.0 mi Calm Calm - N/A   Mostly Cloudy
1:54 AM 43.2 °F - 39.7 °F 88% 30.33 in 10.0 mi Calm Calm - N/A   Scattered Clouds
2:13 AM 41.9 °F - 39.7 °F 92% 30.32 in 10.0 mi Calm Calm - N/A   Clear
2:34 AM 40.5 °F - 39.0 °F 95% 30.32 in 10.0 mi Calm Calm - N/A   Clear
2:54 AM 40.5 °F - 39.0 °F 95% 30.32 in 10.0 mi Calm Calm - N/A   Clear
3:13 AM 40.3 °F - 38.8 °F 95% 30.32 in 10.0 mi Calm Calm - N/A   Clear
3:34 AM 39.2 °F - 38.3 °F 97% 30.32 in 10.0 mi Calm Calm - N/A   Clear
3:53 AM 39.4 °F - 38.5 °F 97% 30.32 in 10.0 mi Calm Calm - N/A   Clear
4:13 AM 39.2 °F - 38.7 °F 98% 30.32 in 7.0 mi North - - N/A   Clear
4:34 AM 37.4 °F - 36.7 °F 97% 30.32 in 10.0 mi Calm Calm - N/A   Clear
4:54 AM 37.8 °F - 37.4 °F 99% 30.32 in 7.0 mi Calm Calm - N/A   Clear
5:14 AM 38.5 °F 36.1 °F 37.9 °F 98% 30.32 in 10.0 mi NNW 3.5 mph - N/A   Clear
5:33 AM 37.4 °F - 36.9 °F 98% 30.33 in 10.0 mi Calm Calm - N/A   Clear
5:54 AM 37.4 °F - 37.0 °F 99% 30.33 in 10.0 mi Calm Calm - N/A   Clear
6:14 AM 37.2 °F - 36.9 °F 99% 30.33 in 10.0 mi North - - N/A   Clear
6:33 AM 37.6 °F 35.1 °F 37.4 °F 99% 30.33 in 5.0 mi NW 3.5 mph - N/A   Clear
6:54 AM 39.0 °F - 38.5 °F 98% 30.34 in 10.0 mi North - - N/A   Clear
7:14 AM 40.6 °F 38.6 °F 40.3 °F 99% 30.34 in 7.0 mi NE 3.5 mph - N/A   Clear
7:33 AM 43.5 °F - 42.8 °F 97% 30.35 in 10.0 mi North - - N/A   Clear
7:54 AM 45.7 °F - 42.3 °F 88% 30.35 in 10.0 mi North - - N/A   Clear
8:13 AM 47.5 °F - 43.2 °F 85% 30.36 in 10.0 mi Calm Calm - N/A   Clear
8:34 AM 49.6 °F - 40.3 °F 70% 30.36 in 10.0 mi North - - N/A   Clear
8:53 AM 51.6 °F - 39.7 °F 64% 30.37 in 10.0 mi Calm Calm - N/A   Clear
9:14 AM 53.2 °F - 37.0 °F 54% 30.36 in 10.0 mi Calm Calm - N/A   Clear
9:34 AM 54.3 °F - 36.7 °F 51% 30.36 in 10.0 mi Calm Calm - N/A   Clear
9:54 AM 56.1 °F - 39.6 °F 54% 30.35 in 10.0 mi Calm Calm - N/A   Clear
10:13 AM 56.8 °F - 37.4 °F 48% 30.35 in 10.0 mi Calm Calm - N/A   Clear
10:34 AM 58.1 °F - 33.3 °F 39% 30.35 in 10.0 mi Calm Calm - N/A   Clear
10:53 AM 58.6 °F - 31.8 °F 36% 30.35 in 10.0 mi NE 3.5 mph - N/A   Clear
11:14 AM 59.4 °F - 33.4 °F 38% 30.35 in 10.0 mi Calm Calm - N/A   Clear
11:33 AM 60.4 °F - 34.5 °F 38% 30.34 in 10.0 mi North - - N/A   Clear
11:54 AM 60.8 °F - 30.4 °F 32% 30.35 in 10.0 mi North 3.5 mph - N/A   Clear
12:13 PM 61.7 °F - 32.4 °F 33% 30.35 in 10.0 mi Calm Calm - N/A   Clear
12:34 PM 62.4 °F - 35.1 °F 36% 30.34 in 10.0 mi Calm Calm - N/A   Clear
12:54 PM 61.9 °F - 32.4 °F 33% 30.34 in 10.0 mi Calm Calm - N/A   Clear
1:14 PM 63.5 °F - 36.1 °F 36% 30.33 in 10.0 mi NE 4.6 mph - N/A   Clear
1:34 PM 63.3 °F - 31.6 °F 31% 30.33 in 10.0 mi NNW 5.8 mph - N/A   Clear
1:54 PM 63.7 °F - 34.9 °F 34% 30.32 in 10.0 mi East 6.9 mph - N/A   Clear
2:13 PM 64.2 °F - 36.7 °F 36% 30.32 in 10.0 mi East 8.1 mph - N/A   Clear
2:34 PM 63.5 °F - 35.2 °F 35% 30.32 in 10.0 mi ENE 5.8 mph - N/A   Clear
2:54 PM 63.5 °F - 33.3 °F 32% 30.31 in 10.0 mi East 3.5 mph - N/A   Clear
3:13 PM 63.5 °F - 32.9 °F 32% 30.31 in 10.0 mi Calm Calm - N/A   Clear
3:34 PM 64.8 °F - 35.8 °F 34% 30.30 in 10.0 mi North - - N/A   Clear
3:53 PM 65.5 °F - 38.1 °F 36% 30.30 in 10.0 mi North - - N/A   Clear
4:14 PM 66.0 °F - 38.8 °F 37% 30.29 in 10.0 mi ENE 8.1 mph - N/A   Clear
4:33 PM 65.5 °F - 37.2 °F 35% 30.28 in 10.0 mi East 3.5 mph - N/A   Clear
4:54 PM 66.0 °F - 36.3 °F 33% 30.28 in 10.0 mi North - - N/A   Clear
5:14 PM 65.3 °F - 36.0 °F 34% 30.27 in 10.0 mi SSE 4.6 mph - N/A   Clear
5:33 PM 65.5 °F - 39.7 °F 39% 30.27 in 10.0 mi East 4.6 mph - N/A   Clear
5:54 PM 64.6 °F - 37.2 °F 36% 30.26 in 10.0 mi ESE 9.2 mph - N/A   Clear
6:14 PM 64.6 °F - 38.1 °F 38% 30.26 in 10.0 mi SE 5.8 mph - N/A   Clear
6:34 PM 64.6 °F - 37.8 °F 37% 30.26 in 10.0 mi Calm Calm - N/A   Clear
6:54 PM 63.7 °F - 36.9 °F 37% 30.26 in 10.0 mi East 6.9 mph - N/A   Clear
7:14 PM 62.4 °F - 37.2 °F 39% 30.26 in 10.0 mi East 8.1 mph - N/A   Clear
7:34 PM 62.6 °F - 35.8 °F 37% 30.26 in 10.0 mi East 8.1 mph - N/A   Clear
7:54 PM 61.7 °F - 35.8 °F 38% 30.25 in 10.0 mi East 8.1 mph - N/A   Clear
8:14 PM 60.3 °F - 36.3 °F 41% 30.25 in 10.0 mi ESE 3.5 mph - N/A   Clear
8:33 PM 59.5 °F - 35.6 °F 41% 30.25 in 10.0 mi East 9.2 mph - N/A   Clear
8:54 PM 58.3 °F - 35.4 °F 42% 30.25 in 10.0 mi East 8.1 mph - N/A   Clear
9:14 PM 56.3 °F - 36.9 °F 48% 30.24 in 10.0 mi ESE 5.8 mph - N/A   Clear
9:34 PM 55.4 °F - 37.6 °F 51% 30.25 in 10.0 mi East 4.6 mph - N/A   Clear
9:54 PM 51.4 °F - 37.9 °F 60% 30.25 in 10.0 mi North - - N/A   Clear
10:14 PM 48.7 °F - 42.4 °F 79% 30.25 in 10.0 mi East 3.5 mph - N/A   Clear
10:34 PM 49.6 °F - 42.3 °F 76% 30.25 in 10.0 mi ENE 3.5 mph - N/A   Clear
10:54 PM 48.9 °F - 44.4 °F 84% 30.25 in 10.0 mi Calm Calm - N/A   Clear
11:14 PM 48.4 °F - 43.7 °F 84% 30.26 in 10.0 mi Calm Calm - N/A   Clear
11:34 PM 48.9 °F - 43.7 °F 82% 30.26 in 10.0 mi East 3.5 mph - N/A   Clear
11:54 PM 46.6 °F - 42.1 °F 84% 30.26 in 10.0 mi ENE 5.8 mph - N/A   Clear